Location: Newark
(50.8964°N, 1.4048°W)
Time: 01:57:39
(UTC+00:00)

N. Korean satellite - Pass Details

Date: 01 February 2020
Orbit: 456 x 505 km, 97.2° (Epoch: 26 February)

Event Time Altitude Azimuth Distance (km) Brightness Sun altitude
Rises 18:04:03 0° 209° (SSW) 2,470 10.8 -10.9°
Reaches altitude 10° 18:06:47 10° 234° (SW) 1,607 10.4 -11.3°
Maximum altitude 18:08:48 15° 270° (W) 1,350 10.1 -11.6°
Drops below altitude 10° 18:10:51 10° 306° (NW) 1,627 9.8 -11.9°
Sets 18:13:40 0° 331° (NNW) 2,520 10.4 -12.3°
